Aeroporto :
LOGIN :

Iscrizione | Disclaimer

   EN    FR    IT 

 










Sommario :    VFR   VFR Marginale   IFR   IFR Intensivo   IFR Molto Intensivo
Visibilità : 
Base nubi : 
>= 8 km
>= 3000ft
5 / 8 km
1000 / 3000 ft
1500m / 5 km
500 / 1000 ft
800 / 1500m
200 / 500 ft
< 800m
< 200 ft
Simboli :   Temporali  Nebbia  Neve Forte  Precipitazioni Forti  Vento > 20 kt
SIGMETs :   Varie  Temporali  Ghiacco  Turbolenza  Onda orograficha  Ceneri Vulcaniche







- Altitudine del aeroporto : 465 ft
- Codice IATA : LEJ


EDDP - Leipzig Halle

ULTIMO METAR :
  • 181550Z 17005KT CAVOK 14/00 Q1017 NOSIG

METARs OBSOLETI :
  • 181520Z 20005KT CAVOK 15/M00 Q1017 NOSIG
  • 181450Z 20007KT 170V230 CAVOK 15/M00 Q1017 NOSIG
  • 181420Z 19008KT CAVOK 15/00 Q1018 NOSIG
  • 181350Z 19007KT CAVOK 15/01 Q1018 NOSIG
  • 181320Z 19006KT 160V230 CAVOK 15/01 Q1018 NOSIG

TAF TAF EDDP
Valido dal 18 a 12 ore il 19 a 12 ore UTC


181100Z 1812/1912 20006KT CAVOK
BECMG 1821/1823 20011KT
Nessun NOTAM noto per questo aeroporto.



MetMap, La meteo Aeronautica in un colpo d'occhio ! - Copyright ORBIFLY Dicembre 2007 - Disclaimer

ORBIFLY MET'MAP TEAM :

Programmazione e sviluppo : Alexandra Zaïnal
Concezione e sviluppo : Baudouin d'Aumeries
Co-Programmazione e sviluppo : Marc-Olivier Méhu
Supporto tecnico e logistico : Manuel Goepfert
Aiuto per la traduzione : Arnaldo La Scala

Contatto : metmap@orbifly.com




FONTI E CREDITI :

   NOAA